Printer-friendly version

IAU Minor Planet Center

Minor Planet Center

MPEC 2003-G16 : 2003 CC22

The following Minor Planet Electronic Circular may be linked-to from your own Web pages, but must not otherwise be redistributed electronically.


Read MPEC 2003-G15 Read MPEC 2003-G17


M.P.E.C. 2003-G16                                Issued 2003 Apr. 3, 16:40 UT

     The Minor Planet Electronic Circulars contain information on unusual
         minor planets and routine data on comets.  They are published
   on behalf of Commission 20 of the International Astronomical Union by the
          Minor Planet Center, Smithsonian Astrophysical Observatory,
                          Cambridge, MA 02138, U.S.A.

             Prepared using the Tamkin Foundation Computer Network

                              MPC@CFA.HARVARD.EDU
          URL http://cfa-www.harvard.edu/iau/mpc.html  ISSN 1523-6714

                                   2003 CC22

Observations:
     K03C22C  C2003 02 02.14465 08 59 19.18 +18 18 34.2          22.2 R      695
     K03C22C  C2003 02 02.21519 08 59 16.95 +18 18 48.1                      695
     K03C22C  C2003 02 02.28050 08 59 14.88 +18 19 01.0                      695
     K03C22C  C2003 02 04.16967 08 58 16.47 +18 25 10.8                      695
     K03C22C  C2003 02 04.17661 08 58 16.47 +18 25 10.8                      695
     K03C22C  C2003 02 04.17747 08 58 16.22 +18 25 12.0                      695
     K03C22C  C2003 02 04.18441 08 58 16.22 +18 25 12.0                      695
     K03C22C  C2003 02 04.23977 08 58 14.32 +18 25 23.6                      695
     K03C22C  C2003 02 04.24671 08 58 14.32 +18 25 23.6                      695
     K03C22C  C2003 02 04.35414 08 58 10.68 +18 25 44.9                      695
     K03C22C  C2003 02 04.35762 08 58 10.68 +18 25 44.9                      695
     K03C22C  C2003 02 04.36456 08 58 10.68 +18 25 44.9                      695
     K03C22C* C2003 02 08.34332 08 56 08.02 +18 38 34.8          22.8 R      568
     K03C22C  C2003 02 08.36322 08 56 07.37 +18 38 38.5                      568
     K03C22C  C2003 02 10.49016 08 55 02.72 +18 45 20.3                      568
     K03C22C  C2003 02 10.49778 08 55 02.51 +18 45 21.8                      568
     K03C22C  C2003 02 23.47832 08 48 59.84 +19 22 37.8          21.9 R      568
     K03C22C  C2003 02 23.48656 08 48 59.64 +19 22 38.9                      568
     K03C22C  C2003 02 26.38863 08 47 49.56 +19 29 54.9          22.2 R      568
     K03C22C  C2003 02 26.41172 08 47 48.99 +19 29 58.4                      568
     K03C22C  C2003 03 02.52726 08 46 18.67 +19 39 28.2          21.9 R      568
     K03C22C  C2003 03 02.53291 08 46 18.54 +19 39 28.9                      568
     K03C22C  C2003 03 03.48492 08 45 59.36 +19 41 32.7          21.8 R      568
     K03C22C  C2003 03 03.49086 08 45 59.22 +19 41 33.5                      568
     K03C22C  C2003 04 03.32985 08 42 35.25 +20 16 06.9          21.6 R      568
     K03C22C  C2003 04 03.40912 08 42 35.79 +20 16 06.8                      568

Observer details:
568 Mauna Kea.  Observers S. S. Sheppard, D. C. Jewitt, J. Kleyna, Y. R.
    Fernandez, H. H. Hsieh.  Measurer S. S. Sheppard.  3.6-m
    Canada-France-Hawaii Telescope + CCD, 2.2-m University of Hawaii
    Telescope + CCD.
695 Kitt Peak.  Observers M. Holman, J. Kavelaars, T. Grav.  Measurer
    M. Holman.  4-m reflector + CCD.

Orbital elements:
2003 CC22
Epoch 2003 Mar. 2.0 TT = JDT 2452700.5                  MPC
M 350.40425              (2000.0)            P               Q
n   0.04799213     Peri.   38.48187     -0.95106817     -0.29475755
a   7.4993339      Node   124.13073     +0.24847528     -0.90788483
e   0.4393477      Incl.    6.42775     +0.18365559     -0.29809919
P  20.5            H   16.1           G   0.15
From 24 observations 2003 Feb. 2-Apr. 3.

Ephemeris:
2003 CC22                a,e,i = 7.50, 0.44, 6                   q = 4.2045
Date    TT    R. A. (2000) Decl.     Delta      r     Elong.  Phase     V
2003 04 01    08 42.34   +20 15.7    3.765    4.308   116.8    11.9    22.9
2003 04 11    08 44.02   +20 14.8    3.890    4.297   107.3    12.9    23.0
2003 04 21    08 47.21   +20 07.3    4.023    4.286    98.3    13.4    23.1
2003 05 01    08 51.79   +19 53.6    4.161    4.275    89.7    13.6    23.1
2003 05 11    08 57.63   +19 34.0    4.298    4.266    81.4    13.5    23.2
2003 05 21    09 04.58   +19 08.7    4.433    4.257    73.5    13.2    23.2
2003 05 31    09 12.47   +18 38.2    4.562    4.249    65.8    12.6    23.3
2003 06 10    09 21.18   +18 02.7    4.684    4.241    58.4    11.8    23.3
2003 06 20    09 30.56   +17 22.6    4.796    4.234    51.2    10.8    23.3
2003 06 30    09 40.49   +16 38.1    4.897    4.228    44.2     9.6    23.3
2003 07 10    09 50.86   +15 49.7    4.986    4.222    37.3     8.4    23.3
2003 07 20    10 01.58   +14 57.7    5.062    4.218    30.5     7.0    23.3

Brian G. Marsden             (C) Copyright 2003 MPC           M.P.E.C. 2003-G16

Read MPEC 2003-G15 Read MPEC 2003-G17


Our Web policy. Index to the CBAT/MPC/ICQ pages.


Valid HTML 4.01!